Cloud_Cover
98 100 48 83 62 89 98 3 56 54 45 86 88 26 100 71 98 21 5 11 63 31 45 79 5 26 54 2 4 5 0 0 0 0 4 2 5 0 0 0 7 0 5 20
99 99 100 89 76 87 68 94 32 72 74 4 74 43 99 81 73 16 23 0 2 3 94 100 99 74 3 11 4 2 1 0 0 0 1 5 8 32 67 18 5 11 100 100
100 100 100 97 47 61 100 88 75 24 64 99 4 97 83 100 100 100 100 17 0 26 17 4 4 4 5 1 16 4 57 5 4 0 1 4 0 2 51 100 68 100 100 100
100 100 100 100 100 100 100 100 100 100 88 79 100 76 100 100 100 100 100 78 5 63 2 98 58 0 2 3 7 65 5 0 0 0 0 5 5 100 100 99 89 100 100 100
100 100 79 91 80 88 38 94 100 100 69 95 100 100 100 100 100 100 100 100 96 96 42 28 28 25 3 5 5 100 5 4 0 0 0 14 100 100 100 100 100 100 56 100
38 12 21 21 11 5 64 3 40 100 93 100 19 79 97 100 100 98 100 100 100 99 72 100 100 100 100 91 36 5 26 27 17 65 100 100 100 100 100 100 100 100 100 100
22 53 4 8 17 56 60 44 65 89 70 85 52 98 100 73 100 100 100 100 100 100 100 100 100 100 100 100 94 99 93 60 25 54 96 100 100 100 100 100 100 100 88 87
11 50 84 20 94 86 95 98 10 5 45 100 33 100 100 77 100 97 100 17 31 6 56 98 94 56 100 100 100 59 86 97 42 98 98 100 100 100 99 100 100 100 99 100
55 3 3 100 94 100 100 99 73 33 5 31 46 57 10 96 100 100 100 100 31 4 4 3 24 5 79 88 84 100 100 100 86 100 100 100 100 100 100 100 100 100 100 100
46 16 22 100 87 82 60 0 3 0 0 4 40 96 13 0 35 100 100 100 100 100 100 100 100 88 93 99 89 78 36 99 96 100 100 100 100 100 100 100 100 100 100 93
1 0 26 22 99 36 2 0 0 0 0 2 75 98 68 1 0 1 39 73 100 100 100 100 100 100 100 93 35 23 47 84 100 100 100 100 100 100 100 100 100 100 100 100
0 0 0 0 0 4 5 2 5 8 24 6 58 100 100 2 0 0 1 92 98 100 100 100 100 100 91 100 100 62 99 97 100 100 100 100 76 98 100 100 100 100 100 100
0 0 2 0 3 78 82 6 17 4 5 0 0 51 3 5 5 4 10 100 100 100 100 100 100 100 100 100 72 82 39 43 37 74 100 100 100 100 100 100 91 61 99 100
1 12 14 8 89 100 23 59 74 16 39 26 32 100 68 0 0 16 72 100 100 100 100 100 100 100 60 40 30 36 41 82 98 81 94 100 100 100 82 58 45 50 23 35
0 0 6 46 24 100 94 57 28 92 42 49 28 100 96 2 1 3 100 100 100 97 94 99 100 95 62 89 93 94 100 100 100 100 100 100 97 74 63 22 2 2 0 0
92 62 78 5 28 94 95 100 100 97 60 97 100 100 100 13 9 83 100 100 100 100 98 39 17 96 100 96 100 100 83 55 100 100 100 100 98 8 5 5 5 5 4 1
53 69 23 4 8 82 22 48 79 73 100 86 63 89 6 35 45 100 100 100 100 100 80 94 98 100 99 100 73 84 51 54 88 1 59 90 5 5 5 5 5 22 82 5
53 7 16 5 18 7 52 100 22 86 99 48 30 5 26 93 99 100 100 100 100 100 94 96 47 14 70 99 100 100 97 1 6 7 0 6 3 5 86 37 40 59 69 40
57 22 70 80 58 31 18 62 92 48 50 1 2 1 100 100 100 100 100 100 100 100 100 44 93 100 100 100 61 17 5 0 0 0 1 73 84 96 92 46 63 100 100 100
74 3 3 12 69 96 99 98 41 97 40 0 46 0 84 100 100 100 100 100 100 100 100 100 100 100 71 83 47 18 0 0 0 2 20 28 6 8 58 83 98 90 100 100
42 82 97 91 80 97 75 98 84 5 10 2 89 100 88 100 67 36 26 66 96 100 100 100 100 99 35 0 0 0 0 0 0 0 0 0 5 5 0 0 0 4 27 2
7 79 94 32 76 100 99 94 25 46 84 73 3 33 61 5 16 58 100 90 85 78 39 4 0 0 0 0 0 0 0 0 0 0 0 0 0 0 69 90 33 0 0 1
4 86 87 8 100 100 100 100 21 8 5 5 5 86 2 0 0 58 99 97 98 100 3 0 0 0 0 0 0 0 0 0 0 0 0 0 0 2 99 32 67 28 0 0
12 90 75 91 99 100 86 99 22 26 5 5 2 0 3 3 65 35 9 96 99 45 0 0 0 0 0 0 0 0 0 0 0 0 0 0 0 0 0 0 0 63 80 0
59 62 82 100 87 100 100 100 5 19 5 4 0 0 0 0 81 0 0 0 0 0 0 0 0 0 2 95 61 0 4 2 0 0 0 0 0 0 0 0 0 0 0 0
92 62 85 99 99 99 100 100 92 5 5 0 0 0 0 0 0 2 0 0 0 0 0 0 0 0 6 65 1 0 0 1 0 0 0 0 0 0 0 2 0 0 0 0